Location: Caltech
(34.1382°N, 118.1253°W)
Time: 02:04:33
(UTC-07:00)

Iridium 49 - Visible Passes

Search period start: 30 August 2016 00:00
Search period end: 09 September 2016 00:00
Orbit: 776 x 779 km, 86.4° (Epoch: 29 August)

Date Brightness Start Highest point End Pass type
(mag) Time Alt. Az. Time Alt. Az. Time Alt. Az.
30 Aug 8.9 02:15:25 11° ENE 02:15:25 11° ENE 02:15:57 10° NE visible
30 Aug 7.2 03:55:54 32° NNW 03:55:54 32° NNW 03:58:51 10° N visible
31 Aug 7.6 03:22:48 30° N 03:22:48 30° N 03:25:24 10° N visible
01 Sep 8.3 02:49:41 21° NNE 02:49:41 21° NNE 02:51:34 10° NNE visible
01 Sep 8.1 04:30:11 14° NW 04:30:11 14° NW 04:31:19 10° NNW visible
02 Sep 8.9 02:16:33 12° NE 02:16:33 12° NE 02:17:11 10° NE visible
02 Sep 7.9 03:57:02 19° NNW 03:57:02 19° NNW 03:58:42 10° NNW visible
03 Sep 8.1 03:23:54 20° N 03:23:54 20° N 03:25:30 10° N visible
04 Sep 8.5 02:50:44 17° NNE 02:50:44 17° NNE 02:51:54 10° N visible
05 Sep 8.9 02:17:33 12° NNE 02:17:33 12° NNE 02:17:54 10° NNE visible
05 Sep 8.4 03:58:03 11° NNW 03:58:03 11° NNW 03:58:21 10° NNW visible
06 Sep 8.5 03:24:52 13° NNW 03:24:52 13° NNW 03:25:27 10° N visible
07 Sep 8.7 02:51:39 12° N 02:51:39 12° N 02:52:06 10° N visible
